Regional Weather Roundup
Issued by NWS

Home | Current Version | Previous Version | Text Only | Print | Product List | Glossary Off
Versions: 1 2 3 4 5 6 7 8 9 10 11 12 13 14 15 16 17 18 19 20 21 22 23 24 25 26 27 28 29 30 31 32 33 34 35 36 37 38 39 40 41 42 43 44 45 46 47 48 49 50

000
ASUS45 KBOI 290810
RWRID

IDAHO REGIONAL WEATHER ROUNDUP
NATIONAL WEATHER SERVICE BOISE ID
200 AM MDT SAT AUG 29 2015

NOTE: "FAIR" INDICATES FEW OR NO CLOUDS BELOW 12000 FEET
WITH NO SIGNIFICANT WEATHER AND/OR OBSTRUCTIONS TO VISIBILITY

IDZ012-014-290900-
SOUTHWEST IDAHO


CITY           SKY/WX    TMP DP  RH WIND       PRES   REMARKS
BOISE          MOCLDY    79  39  23 SE10      29.80F
CALDWELL         N/A     68  46  45 NE7       29.82R
MOUNTAIN HOME  CLOUDY    72  43  34 E5        29.84F
$$

IDZ016-017-290900-
SOUTHCENTRAL IDAHO


CITY           SKY/WX    TMP DP  RH WIND       PRES   REMARKS
JEROME         CLOUDY    70  44  39 E6        29.98F
TWIN FALLS     CLOUDY    74  40  29 SW8       29.99S
$$

IDZ019>023-290900-
SOUTHEAST IDAHO


CITY           SKY/WX    TMP DP  RH WIND       PRES   REMARKS
IDAHO FALLS    MOCLDY    59  51  75 N3        30.07F
POCATELLO      CLEAR     75  39  27 VRB3      30.03F
REXBURG        MOCLDY    59  44  57 N3        30.09F
$$

IDZ006-010-011-018-031-032-290900-
CENTRAL IDAHO MOUNTAINS


CITY           SKY/WX    TMP DP  RH WIND       PRES   REMARKS
MCCALL         CLOUDY    62  44  51 NE7       29.97F
HAILEY         CLOUDY    64  45  48 NW3       30.11R
STANLEY          N/A     59  38  45 E5        30.18F
SALMON         CLOUDY    63  48  59 S6        30.01S
CHALLIS        CLOUDY    65  44  46 SE5       30.08S
$$

IDZ002-004-006-007-026-290900-
NORTHERN IDAHO


CITY           SKY/WX    TMP DP  RH WIND       PRES   REMARKS
LEWISTON       CLOUDY    75  45  34 S9        29.74F HAZE
LOWELL           N/A     64  54  69 N5        29.84F
COEUR D`ALENE  CLOUDY    64  46  52 E10       29.82F
MULLAN PASS    MOCLDY    59  37  44 S9        30.06F HAZE
$$



USA.gov is the U.S. government's official web portal to all federal, state and local government web resources and services.